TimeCST,TemperatureF,Dew PointF,Humidity,Sea Level PressureIn,VisibilityMPH,Wind Direction,Wind SpeedMPH,Gust SpeedMPH,PrecipitationIn,Events,Conditions,WindDirDegrees,DateUTC
12:54 AM,51.1,48.0,89,29.88,9.0,South,12.7,-,N/A,,Overcast,190,2013-01-28 06:54:00
1:54 AM,51.1,48.0,89,29.88,9.0,SSW,13.8,-,N/A,,Overcast,200,2013-01-28 07:54:00
2:54 AM,51.1,48.9,92,29.87,9.0,SSW,11.5,-,N/A,,Overcast,200,2013-01-28 08:54:00
3:54 AM,53.1,50.0,89,29.87,9.0,SSW,12.7,-,N/A,,Overcast,200,2013-01-28 09:54:00
4:39 AM,53.6,50.0,88,29.86,7.0,SSW,17.3,-,0.00,Rain,Light Rain,200,2013-01-28 10:39:00
4:54 AM,53.1,50.0,89,29.87,8.0,SSW,13.8,-,0.00,Rain,Light Rain,200,2013-01-28 10:54:00
5:54 AM,53.1,50.0,89,29.87,8.0,SSW,10.4,-,0.00,,Overcast,210,2013-01-28 11:54:00
6:54 AM,53.1,51.1,93,29.89,9.0,SSW,10.4,-,N/A,,Overcast,210,2013-01-28 12:54:00
7:32 AM,53.6,51.8,94,29.89,8.0,SSW,8.1,-,N/A,,Overcast,210,2013-01-28 13:32:00
7:54 AM,53.1,51.1,93,29.90,7.0,SSW,6.9,-,N/A,,Overcast,210,2013-01-28 13:54:00
8:54 AM,54.0,52.0,93,29.91,7.0,SW,3.5,-,N/A,,Overcast,230,2013-01-28 14:54:00
9:54 AM,57.0,53.1,87,29.92,9.0,WSW,3.5,-,N/A,,Overcast,240,2013-01-28 15:54:00
10:19 AM,57.2,53.6,88,29.92,8.0,Calm,Calm,-,N/A,,Overcast,0,2013-01-28 16:19:00
10:54 AM,55.4,53.6,94,29.92,5.0,NE,4.6,-,N/A,,Overcast,50,2013-01-28 16:54:00
11:54 AM,57.9,54.0,87,29.90,7.0,ENE,3.5,-,N/A,,Overcast,70,2013-01-28 17:54:00
12:07 PM,59.0,55.4,88,29.89,8.0,ESE,3.5,-,N/A,,Overcast,120,2013-01-28 18:07:00
12:25 PM,60.8,55.4,82,29.88,9.0,SE,3.5,-,N/A,,Overcast,130,2013-01-28 18:25:00
12:54 PM,62.1,55.9,80,29.87,10.0,SSW,6.9,-,N/A,,Overcast,200,2013-01-28 18:54:00
1:20 PM,62.6,57.2,82,29.86,10.0,South,6.9,-,N/A,,Overcast,190,2013-01-28 19:20:00
1:34 PM,62.6,57.2,82,29.85,10.0,SSW,8.1,-,N/A,,Overcast,200,2013-01-28 19:34:00
1:54 PM,62.1,57.0,84,29.84,10.0,South,5.8,-,N/A,,Overcast,190,2013-01-28 19:54:00
2:54 PM,64.9,57.9,78,29.83,10.0,SSE,3.5,-,N/A,,Partly Cloudy,150,2013-01-28 20:54:00
3:54 PM,64.9,57.9,78,29.82,10.0,SSE,6.9,-,N/A,,Clear,150,2013-01-28 21:54:00
4:54 PM,62.1,57.0,84,29.81,10.0,SE,9.2,-,N/A,,Clear,130,2013-01-28 22:54:00
5:54 PM,57.0,54.0,89,29.81,9.0,SE,8.1,-,N/A,,Clear,140,2013-01-28 23:54:00
6:19 PM,57.2,53.6,88,29.81,8.0,SSE,8.1,-,N/A,Thunderstorm,Partly Cloudy,160,2013-01-29 00:19:00
6:34 PM,60.8,55.4,82,29.81,10.0,SSE,8.1,-,N/A,,Mostly Cloudy,160,2013-01-29 00:34:00
6:54 PM,61.0,55.9,83,29.80,10.0,SSE,9.2,-,N/A,,Partly Cloudy,160,2013-01-29 00:54:00
7:54 PM,54.0,51.1,90,29.80,8.0,SE,8.1,-,N/A,,Clear,140,2013-01-29 01:54:00
8:54 PM,59.0,54.0,83,29.78,10.0,SSE,6.9,-,N/A,,Clear,150,2013-01-29 02:54:00
9:54 PM,63.0,55.0,75,29.77,10.0,South,12.7,-,N/A,,Clear,170,2013-01-29 03:54:00
10:54 PM,64.0,55.0,73,29.75,10.0,South,16.1,21.9,N/A,,Overcast,180,2013-01-29 04:54:00
11:54 PM,62.1,55.0,78,29.75,10.0,South,12.7,19.6,N/A,,Overcast,180,2013-01-29 05:54:00